Location: Moscow
(38.8570°N, 84.2291°W)
Time: 21:26:11
(UTC+00:00)

UKube-1 - Pass Details

Date: 21 March 2026
Orbit: 527 x 530 km, 98.4° (Epoch: 11 April)

Event Time Altitude Azimuth Distance (km) Brightness Sun altitude
Rises 10:07:01 0° 31° (NNE) 2,669 ? -18.5°
Reaches altitude 10° 10:09:39 10° 50° (NE) 1,774 ? -18.0°
Maximum altitude 10:12:21 18° 95° (E) 1,330 ? -17.5°
Drops below altitude 10° 10:15:01 10° 140° (SE) 1,764 ? -17.0°
Sets 10:17:37 0° 159° (SSE) 2,647 ? -16.5°
